Location: Unspecified
(48.5670°N, 0.0000°E)
Time: 11:03:21
(UTC+00:00)

Tiros 1 - Pass Details

Date: 31 October 2020
Orbit: 630 x 664 km, 48.4° (Epoch: 03 December)

Event Time Altitude Azimuth Distance (km) Brightness Sun altitude
Exits shadow 05:26:52 21° 272° (W) 1,432 8.3 -13.4°
Maximum altitude 05:29:59 89° 187° (S) 635 7.1 -12.9°
Drops below altitude 10° 05:34:37 10° 95° (E) 2,009 11.2 -12.1°
Sets 05:36:56 0° 95° (E) 2,918 12.7 -11.7°
